Temperature
9 9 10 10 10 10 10 10 10 10 11 10 10 10 10 10 10 10 10 10 11 10 11 10 10 10 10 10 10 10 10 10 10 10 10 10 10 10 10 10 10 10 10
9 9 9 9 9 10 10 10 10 10 10 10 10 10 10 10 10 10 10 10 10 10 10 10 10 10 10 10 10 10 10 10 10 10 10 10 10 10 10 10 10 10 10
8 8 8 9 9 9 9 9 9 9 9 10 9 9 9 9 9 9 10 10 10 10 10 10 10 10 10 10 10 10 10 10 10 10 10 10 10 10 10 10 10 10 10
7 7 8 8 8 8 9 9 9 9 9 9 9 9 9 9 9 9 9 9 9 9 9 9 9 9 9 9 9 9 9 9 9 9 10 9 9 9 9 9 9 9 9
7 7 7 7 8 8 8 8 8 8 8 8 8 8 8 8 8 8 9 9 9 9 9 9 9 9 9 9 9 9 9 9 9 9 9 9 9 9 9 9 9 9 9
6 6 6 7 7 7 7 7 8 8 8 8 8 8 8 8 8 8 8 8 8 8 8 8 9 9 8 8 8 8 8 9 9 9 9 9 9 9 9 9 9 9 9
5 6 6 6 7 7 7 7 7 7 7 7 7 7 7 7 7 7 7 8 8 8 8 8 8 8 8 8 8 8 8 8 8 8 8 8 8 8 8 8 8 8 8
5 5 5 6 6 6 6 6 6 6 7 7 7 6 6 6 7 7 7 7 7 7 7 7 7 8 8 8 8 8 8 8 8 8 8 8 8 8 8 8 8 8 8
4 4 5 5 5 5 6 6 6 6 6 6 6 6 6 6 6 6 6 6 7 7 7 7 7 7 7 7 7 7 7 7 7 7 7 7 8 8 8 8 8 8 8
4 4 4 4 4 5 5 5 5 5 5 5 6 6 6 6 5 5 6 6 6 6 6 6 6 6 7 7 7 7 7 7 7 7 7 7 7 7 7 7 7 7 7
3 3 4 4 4 4 4 4 5 5 5 5 5 5 5 5 5 5 5 5 5 6 6 6 6 6 6 6 6 6 6 6 6 6 7 7 7 7 7 7 7 7 7
3 3 3 3 3 4 4 4 4 4 4 4 4 5 5 5 5 5 5 5 5 5 5 5 5 5 6 6 6 6 6 6 6 6 6 6 6 6 6 6 6 6 6
2 3 3 3 3 3 3 3 3 4 4 4 4 4 4 5 5 5 5 4 4 4 5 5 5 5 5 5 5 5 5 5 5 5 6 6 6 6 6 6 6 6 6
2 2 2 2 2 2 3 3 3 3 3 3 3 3 4 4 4 4 4 4 3 3 4 4 5 5 5 5 5 5 5 5 5 5 5 5 5 5 5 5 5 5 5
1 1 1 2 2 2 2 2 2 2 2 3 3 3 3 3 4 4 4 4 3 3 3 4 4 4 4 4 4 4 4 4 5 5 5 5 5 5 5 5 5 5 5
0 1 1 1 1 2 2 2 2 2 2 2 2 2 3 3 3 3 3 3 3 3 3 3 4 4 4 4 4 4 4 4 4 4 4 4 4 4 4 4 4 4 4
0 0 1 1 1 1 1 1 1 1 1 2 2 2 2 2 2 3 3 3 3 3 3 3 3 3 3 3 4 3 3 3 4 4 4 4 4 4 4 4 4 4 4
-0 0 0 1 1 1 1 1 1 1 1 1 1 1 1 2 2 2 2 2 2 2 2 2 3 3 3 3 3 3 3 3 3 3 3 3 3 3 3 3 3 3 3
-1 -0 -0 -0 0 0 0 0 0 0 0 1 1 1 1 1 1 1 2 2 2 2 2 2 2 2 2 2 2 3 2 2 2 3 3 2 2 2 2 2 2 2 2
-1 -1 -1 -0 -0 -0 -0 -0 -0 0 0 0 0 0 0 1 1 1 1 1 1 1 1 1 1 2 2 2 2 2 2 2 2 2 2 2 2 2 2 2 2 2 2
-1 -1 -1 -1 -1 -1 -1 -1 -1 -0 -0 -0 -0 -0 -0 0 0 0 0 0 1 1 1 1 1 1 1 1 1 1 1 1 1 1 1 1 1 1 2 2 2 1 1
-2 -2 -1 -1 -1 -1 -1 -1 -1 -1 -1 -1 -1 -1 -1 -1 -0 -0 -0 -0 -0 -0 -0 -0 0 0 0 1 0 0 0 0 0 1 1 1 1 1 1 1 1 1 1
-2 -2 -2 -2 -2 -2 -2 -2 -2 -2 -1 -1 -1 -1 -1 -1 -1 -1 -1 -1 -1 -1 -1 -1 -0 -0 -0 -0 -0 -0 -0 -0 -0 0 -0 0 0 0 0 0 0 0 0
-3 -3 -3 -3 -3 -3 -2 -2 -2 -2 -2 -2 -2 -2 -2 -2 -1 -2 -2 -1 -1 -1 -1 -1 -1 -1 -1 -1 -1 -1 -1 -1 -1 -1 -1 -1 -0 -0 -0 -0 -0 -0 -0
-3 -3 -3 -3 -3 -3 -3 -3 -3 -3 -3 -2 -2 -2 -2 -2 -2 -2 -2 -2 -2 -2 -2 -2 -2 -2 -2 -1 -1 -1 -2 -2 -2 -1 -1 -1 -1 -1 -1 -1 -1 -1 -1
-4 -4 -4 -4 -3 -3 -3 -3 -3 -3 -3 -3 -3 -3 -3 -3 -3 -3 -3 -3 -2 -2 -2 -2 -2 -2 -2 -2 -2 -2 -2 -2 -2 -2 -2 -2 -2 -2 -2 -2 -2 -2 -2
Wind_Speed
2 3 3 3 3 3 4 3 3 4 5 5 5 6 5 5 6 6 5 6 7 9 9 9 9 9 9 8 8 9 9 8 8 7 7 7 7 6 6 6 6 5 5
3 2 2 3 2 2 3 3 3 3 4 4 4 5 5 5 5 6 6 6 7 8 8 8 8 8 8 8 8 8 8 7 6 6 6 6 6 6 5 5 4 4 4
3 3 2 2 2 2 3 3 4 4 3 4 3 3 4 4 5 6 6 7 6 7 8 8 8 8 8 7 7 7 7 6 6 5 5 5 4 4 5 5 4 4 3
3 3 1 1 2 2 3 3 3 3 3 3 2 1 3 3 4 6 6 7 6 6 7 8 8 7 6 7 7 7 6 5 4 4 4 4 4 3 3 3 3 2 2
3 3 2 1 2 2 2 3 3 4 4 3 2 1 2 2 3 5 5 6 6 6 6 7 7 7 6 6 6 5 5 4 3 3 4 4 3 3 2 2 1 1 1
2 3 2 1 2 2 1 2 2 3 3 4 3 2 1 2 3 3 4 6 6 6 6 6 6 5 5 5 4 4 4 3 2 2 3 3 3 2 3 3 2 1 1
2 2 1 1 2 2 2 2 3 3 3 3 3 2 2 2 2 2 3 4 5 5 6 6 5 5 4 4 3 3 2 2 2 2 2 3 4 3 3 3 3 2 2
1 1 1 1 2 3 2 2 3 3 2 3 4 4 2 1 1 1 2 3 3 4 5 5 5 5 5 4 3 2 2 2 2 1 1 1 2 2 3 3 3 3 3
1 1 1 2 2 3 3 3 3 4 4 2 3 4 4 3 2 0 1 2 2 2 3 4 4 4 4 4 3 2 2 2 2 2 1 1 1 1 2 2 3 3 3
2 2 2 2 3 3 4 4 3 4 4 4 2 1 1 3 3 2 1 2 2 3 2 2 3 3 4 4 3 2 3 3 2 2 2 2 1 1 1 2 3 2 3
3 3 2 3 3 3 4 5 4 4 4 4 4 2 1 1 2 3 4 3 1 2 3 3 3 3 4 4 3 4 4 4 3 2 1 2 2 2 1 2 2 2 3
2 3 3 3 3 4 5 5 5 5 5 3 3 3 4 3 4 3 4 5 3 2 2 3 3 3 3 4 4 4 4 4 3 3 2 2 2 2 2 2 3 3 4
3 4 4 3 4 4 5 5 5 5 5 5 4 3 3 3 2 2 4 3 2 1 1 2 3 4 3 3 3 4 5 4 4 4 3 3 3 3 3 4 3 3 4
5 4 4 4 5 5 5 5 4 5 5 5 5 4 4 3 3 3 4 4 3 1 1 2 2 4 4 5 4 5 5 5 5 5 4 3 3 3 3 4 4 4 4
4 5 5 5 5 6 6 6 5 5 5 5 5 5 4 3 3 3 3 4 5 4 4 3 2 3 4 4 4 4 5 6 6 5 5 4 4 4 4 4 4 4 4
5 6 6 5 5 6 6 6 5 6 6 5 4 5 4 3 3 3 3 3 3 3 3 3 2 2 4 4 5 4 5 5 6 6 6 5 4 4 4 4 4 4 4
6 6 6 6 6 6 7 6 6 7 7 6 5 6 5 4 4 4 3 3 3 3 3 3 1 2 3 3 3 4 4 5 5 6 6 6 6 5 5 6 6 5 5
6 6 6 6 6 6 7 8 8 7 8 8 7 7 6 5 5 4 4 4 3 3 3 4 2 2 3 4 3 3 3 4 5 6 7 7 7 7 6 7 7 6 6
5 5 6 6 6 6 7 8 8 8 8 8 8 8 7 6 6 5 5 5 4 3 3 4 3 2 2 3 3 3 3 3 5 6 7 6 7 8 8 7 7 7 7
5 5 6 6 6 6 7 8 8 8 8 8 8 7 7 8 8 7 6 6 4 3 3 3 3 3 2 2 3 3 3 2 3 4 6 6 7 8 7 8 8 8 8
5 5 5 5 5 5 7 8 8 8 8 7 6 6 7 8 8 7 6 6 5 4 4 4 4 3 3 3 4 3 3 2 3 3 3 4 5 6 7 8 8 9 9
3 4 4 5 5 5 8 10 8 8 8 8 7 6 6 7 8 8 8 8 7 6 6 5 4 6 5 4 4 3 3 2 3 2 3 4 4 4 6 7 8 8 8
2 3 4 4 5 6 8 9 9 7 7 7 7 6 5 6 7 6 6 7 7 8 8 6 6 7 7 6 6 5 5 4 5 3 3 4 3 4 6 8 8 9 8
2 2 3 3 3 5 7 8 8 6 5 6 6 7 6 6 6 6 6 5 5 6 7 6 6 6 6 6 7 6 5 3 3 3 3 4 3 4 4 7 8 8 8
2 2 2 2 3 3 6 7 7 5 4 5 6 7 7 6 8 8 6 6 5 4 5 6 7 7 7 7 5 3 4 4 4 3 2 2 2 2 3 3 7 8 7
2 2 2 1 2 2 4 5 7 4 4 4 4 5 8 8 8 9 7 6 7 5 4 3 3 4 4 5 6 5 5 5 3 3 3 2 2 1 2 2 3 5 7
Wind_Direction
49 45 60 60 62 83 93 92 90 91 88 91 94 97 95 96 99 105 111 121 130 132 129 131 131 128 124 123 127 126 117 111 110 109 105 108 105 102 97 100 97 94 97
66 52 58 53 52 78 108 116 118 113 107 101 95 93 98 103 103 108 113 119 126 127 130 130 133 132 127 123 120 126 126 123 115 114 112 107 107 102 96 96 101 92 92
82 60 63 67 47 91 109 109 108 103 109 105 100 95 102 106 114 116 119 119 121 125 127 127 126 131 131 126 126 123 124 124 122 122 126 124 117 110 99 92 96 91 83
96 80 69 83 58 94 109 130 138 126 125 118 116 106 106 106 114 122 121 120 119 122 126 124 121 124 131 130 127 123 119 120 130 137 139 139 136 129 116 108 93 93 82
96 92 65 66 89 84 104 140 146 147 144 134 135 123 107 109 116 121 116 117 118 119 121 128 126 123 122 123 126 122 119 118 126 146 154 152 151 158 160 144 139 93 131
95 95 66 76 114 113 113 136 145 143 151 150 134 106 100 111 113 122 125 119 119 122 123 125 130 136 130 124 117 122 121 129 136 151 172 182 182 189 198 200 199 223 231
97 109 105 99 128 148 159 149 147 143 148 145 122 101 61 76 114 130 118 114 111 123 123 122 125 135 144 148 133 126 136 152 146 128 149 200 208 214 220 218 214 230 246
126 141 129 168 153 159 158 147 144 157 161 153 145 148 139 127 53 116 130 136 130 118 116 128 128 131 136 145 155 153 153 182 196 182 149 151 193 223 227 233 232 238 243
181 170 168 176 172 173 178 174 169 155 169 179 164 162 162 186 175 251 164 154 152 141 126 132 135 141 151 149 162 190 201 203 214 230 226 219 202 250 256 250 243 257 261
195 189 183 180 182 183 185 184 176 173 170 179 183 174 156 149 163 178 214 192 178 170 166 149 150 162 167 167 184 203 213 218 222 232 236 236 265 327 326 295 261 262 269
205 187 181 180 186 185 180 180 184 181 177 180 184 177 150 151 147 165 189 194 205 209 193 179 168 184 190 189 194 206 204 214 221 232 272 281 284 287 307 326 312 285 287
223 201 191 195 196 187 185 184 190 190 188 184 186 179 174 176 175 168 181 189 205 224 209 194 182 184 191 194 198 205 201 206 218 229 252 279 291 299 302 307 317 311 294
234 222 204 209 205 197 191 184 192 197 194 191 193 198 195 197 179 174 170 182 201 249 226 215 201 188 191 192 196 203 207 209 222 231 242 259 272 288 293 293 302 308 309
225 215 209 214 205 197 194 187 195 201 194 196 200 204 200 203 184 174 173 169 181 242 241 233 217 202 207 205 205 203 214 214 220 228 235 246 255 267 275 285 288 293 298
223 208 213 219 209 198 192 189 203 206 196 196 199 202 203 204 194 185 177 174 175 196 221 224 214 215 213 207 209 211 220 220 222 228 234 239 240 248 259 265 271 280 286
222 210 217 218 211 200 193 193 207 203 198 201 197 194 204 207 193 182 183 188 183 187 214 222 223 227 216 221 221 223 231 230 228 229 235 234 232 238 250 256 265 271 279
219 215 212 212 210 204 198 202 208 197 200 204 203 197 204 206 200 193 188 191 194 188 220 253 254 230 217 219 233 231 234 235 234 232 238 239 239 241 248 256 260 267 272
218 211 209 207 209 208 203 205 208 202 203 205 202 201 204 205 209 197 192 200 207 199 201 233 255 233 237 220 221 231 240 239 239 239 240 242 246 249 251 252 257 263 267
224 217 210 210 208 209 212 211 208 204 206 207 204 204 206 202 211 201 197 204 210 209 199 210 237 241 246 220 216 243 246 255 253 246 237 242 254 255 253 254 255 258 263
223 225 215 215 213 213 216 215 214 209 208 210 210 208 209 209 211 204 207 208 203 201 194 203 223 231 236 222 204 222 251 261 265 256 242 251 258 256 256 257 256 256 259
228 224 213 220 219 219 218 213 213 212 208 210 213 213 216 218 218 210 211 203 197 202 202 205 215 228 232 211 221 220 249 270 278 251 243 253 255 253 252 254 252 255 261
228 219 214 218 223 229 229 224 219 208 209 206 209 213 218 226 221 221 225 220 208 203 206 212 217 220 225 221 220 223 232 253 264 237 236 256 240 248 252 248 253 259 262
246 233 222 216 225 236 236 230 227 212 202 202 204 208 219 224 217 209 221 226 228 233 228 219 217 222 224 217 211 219 226 236 251 243 241 258 241 248 257 252 253 255 258
266 248 238 220 225 248 246 235 227 214 206 205 206 207 213 212 214 208 206 212 225 233 239 235 229 232 232 222 214 221 229 241 275 260 225 247 247 251 266 254 249 250 253
296 274 257 230 228 262 257 236 228 210 211 213 213 215 214 210 216 214 207 210 223 239 250 244 245 245 246 243 231 205 204 223 259 259 228 226 243 267 265 251 246 245 250
299 301 312 302 257 263 264 243 229 212 215 221 215 213 220 218 215 215 208 205 217 227 225 237 246 252 247 241 234 227 212 219 241 246 211 204 238 258 269 252 241 248 251
Height
1520 1521 1522 1523 1525 1527 1528 1529 1530 1532 1534 1536 1537 1539 1540 1542 1543 1544 1545 1547 1547 1548 1549 1550 1551 1551 1552 1553 1553 1554 1554 1555 1555 1556 1556 1556 1556 1556 1556 1557 1557 1557 1557
1517 1518 1519 1521 1522 1524 1526 1527 1529 1530 1531 1533 1535 1537 1539 1540 1541 1543 1544 1545 1546 1547 1548 1549 1550 1551 1551 1552 1553 1553 1554 1554 1555 1555 1555 1556 1556 1556 1556 1556 1556 1556 1556
1514 1515 1516 1518 1520 1521 1523 1525 1526 1528 1530 1531 1533 1535 1537 1538 1540 1541 1542 1543 1545 1546 1547 1548 1549 1550 1550 1551 1552 1552 1553 1553 1554 1554 1554 1555 1555 1555 1555 1555 1556 1556 1556
1511 1513 1514 1515 1517 1518 1520 1521 1523 1525 1527 1529 1531 1533 1535 1536 1538 1539 1540 1542 1543 1544 1545 1547 1548 1548 1549 1550 1551 1551 1551 1552 1552 1553 1553 1554 1554 1554 1554 1554 1555 1555 1555
1509 1510 1511 1512 1514 1515 1517 1518 1520 1522 1524 1526 1528 1531 1533 1534 1535 1537 1538 1539 1541 1542 1543 1545 1546 1547 1548 1548 1549 1549 1550 1550 1551 1551 1552 1552 1552 1553 1553 1553 1553 1553 1554
1506 1507 1508 1509 1511 1512 1514 1515 1517 1519 1521 1523 1525 1528 1530 1532 1533 1534 1536 1537 1539 1540 1541 1542 1544 1545 1546 1546 1547 1548 1548 1549 1549 1550 1550 1550 1551 1551 1551 1552 1552 1552 1552
1502 1504 1505 1506 1507 1509 1510 1512 1513 1515 1518 1520 1522 1525 1528 1530 1531 1532 1534 1535 1536 1538 1539 1540 1541 1542 1543 1544 1545 1546 1546 1547 1547 1548 1548 1548 1549 1549 1549 1550 1550 1550 1550
1499 1500 1502 1503 1504 1506 1507 1509 1510 1512 1514 1516 1518 1521 1524 1528 1528 1530 1531 1532 1534 1535 1536 1538 1539 1540 1541 1542 1542 1543 1544 1545 1545 1545 1546 1546 1546 1547 1547 1547 1548 1548 1547
1496 1497 1498 1499 1500 1502 1504 1505 1507 1508 1510 1513 1515 1517 1520 1521 1524 1526 1528 1529 1531 1532 1533 1535 1536 1537 1538 1539 1540 1541 1541 1542 1543 1543 1543 1544 1544 1544 1545 1545 1545 1545 1545
1492 1493 1494 1496 1497 1499 1500 1501 1503 1505 1507 1509 1511 1514 1516 1517 1520 1522 1525 1526 1528 1529 1530 1532 1533 1534 1535 1536 1537 1538 1539 1539 1540 1541 1541 1542 1542 1542 1542 1542 1542 1542 1542
1488 1490 1491 1492 1494 1495 1496 1498 1499 1502 1503 1505 1507 1509 1511 1514 1515 1517 1519 1522 1524 1526 1527 1528 1530 1531 1532 1533 1534 1535 1536 1537 1537 1538 1538 1539 1539 1539 1539 1539 1539 1539 1540
1484 1485 1487 1489 1490 1491 1492 1494 1496 1498 1499 1501 1503 1505 1507 1509 1511 1513 1514 1516 1519 1522 1523 1525 1526 1527 1529 1529 1531 1532 1533 1533 1534 1535 1535 1535 1535 1535 1535 1536 1536 1536 1536
1479 1481 1483 1484 1486 1487 1489 1490 1492 1494 1495 1497 1499 1501 1503 1505 1507 1509 1511 1513 1515 1517 1519 1521 1522 1523 1525 1526 1527 1528 1529 1530 1530 1531 1531 1532 1532 1532 1532 1532 1532 1532 1532
1475 1477 1479 1480 1481 1483 1484 1486 1488 1489 1491 1493 1495 1497 1500 1501 1504 1506 1508 1509 1512 1514 1515 1516 1517 1519 1521 1522 1523 1524 1525 1526 1527 1527 1528 1528 1528 1528 1529 1529 1529 1528 1528
1471 1473 1474 1476 1477 1478 1480 1481 1483 1485 1487 1489 1491 1493 1495 1497 1500 1502 1504 1506 1508 1509 1510 1511 1513 1515 1517 1518 1519 1520 1521 1522 1522 1523 1524 1524 1524 1525 1525 1525 1525 1524 1524
1467 1468 1470 1471 1472 1473 1475 1477 1478 1480 1482 1484 1486 1489 1491 1493 1495 1498 1500 1502 1504 1506 1506 1507 1509 1510 1512 1514 1515 1516 1517 1518 1518 1519 1520 1519 1520 1520 1520 1521 1521 1520 1520
1462 1463 1465 1466 1467 1468 1470 1472 1473 1475 1477 1480 1482 1484 1486 1489 1491 1493 1495 1498 1500 1502 1502 1503 1505 1507 1508 1509 1510 1511 1512 1513 1514 1514 1515 1515 1516 1516 1516 1516 1516 1516 1515
1457 1458 1460 1461 1462 1463 1465 1467 1468 1470 1473 1475 1477 1479 1482 1484 1486 1489 1490 1493 1495 1497 1498 1498 1500 1502 1503 1505 1506 1506 1507 1508 1509 1510 1510 1510 1511 1511 1511 1511 1511 1511 1510
1452 1453 1454 1455 1457 1458 1460 1462 1464 1466 1468 1469 1472 1474 1476 1479 1481 1483 1486 1488 1490 1492 1494 1495 1496 1497 1499 1500 1501 1501 1502 1503 1504 1504 1505 1505 1506 1506 1506 1506 1506 1506 1506
1448 1448 1449 1450 1452 1453 1455 1457 1459 1461 1463 1465 1467 1469 1472 1474 1476 1478 1480 1483 1485 1487 1488 1490 1491 1492 1494 1494 1496 1496 1497 1498 1498 1499 1500 1500 1501 1501 1501 1501 1501 1501 1500
1443 1444 1444 1446 1447 1448 1450 1452 1454 1456 1458 1460 1462 1464 1467 1469 1471 1473 1475 1477 1479 1481 1483 1484 1485 1487 1488 1489 1490 1490 1492 1492 1493 1494 1494 1495 1496 1496 1495 1495 1496 1495 1495
1439 1439 1440 1441 1442 1444 1445 1447 1449 1451 1452 1454 1457 1459 1461 1464 1466 1468 1471 1473 1474 1476 1477 1479 1479 1481 1482 1484 1485 1486 1487 1487 1487 1489 1489 1489 1490 1490 1490 1490 1490 1490 1490
1434 1434 1435 1437 1438 1439 1441 1442 1444 1446 1447 1449 1452 1454 1456 1458 1461 1463 1465 1467 1469 1471 1473 1474 1474 1475 1477 1479 1480 1480 1481 1482 1482 1483 1484 1483 1484 1484 1484 1484 1485 1485 1484
1430 1431 1431 1432 1433 1435 1436 1438 1439 1441 1442 1444 1446 1449 1451 1453 1455 1458 1460 1462 1463 1465 1467 1468 1469 1471 1472 1474 1475 1476 1476 1477 1477 1478 1478 1478 1478 1478 1479 1479 1479 1479 1478
1427 1427 1428 1428 1429 1430 1432 1434 1435 1436 1438 1439 1441 1444 1446 1447 1450 1452 1455 1456 1457 1459 1461 1463 1464 1466 1467 1468 1469 1471 1471 1472 1471 1472 1473 1473 1472 1473 1473 1473 1473 1473 1473
1425 1425 1424 1425 1426 1427 1428 1430 1432 1433 1433 1435 1436 1438 1440 1442 1445 1447 1449 1451 1452 1453 1455 1457 1459 1460 1461 1462 1464 1465 1466 1466 1466 1466 1467 1468 1468 1468 1466 1466 1467 1467 1467